Location: Detroit
(42.3310°N, 83.0460°W)
Time: 14:11:17
(UTC-05:00)

Courier 1B Rocket - All Passes

Search period start: 07 February 2023 00:00
Search period end: 17 February 2023 00:00
Orbit: 920 x 1202 km, 28.2° (Epoch: 07 February)

Date Brightness Start Highest point End Pass type
(mag) Time Alt. Az. Time Alt. Az. Time Alt. Az.
07 Feb - 15:38:47 10° SSW 15:43:08 19° S 15:47:23 10° SE daylight
07 Feb - 17:30:53 10° SW 17:35:35 22° S 17:40:11 10° SE daylight
07 Feb - 19:24:34 10° SW 19:27:56 15° SSW 19:31:19 10° SSE visible
08 Feb - 14:38:27 10° SSW 14:42:22 16° SSE 14:46:11 10° SE daylight
08 Feb - 16:30:00 10° SW 16:34:49 22° S 16:39:31 10° SE daylight
08 Feb - 18:23:08 10° SW 18:27:14 18° SSW 18:31:17 10° SSE visible
09 Feb - 13:38:30 10° S 13:41:36 13° SSE 13:44:37 10° SE daylight
09 Feb - 15:29:11 10° SW 15:34:02 22° S 15:38:43 10° SE daylight
09 Feb - 17:21:55 10° SW 17:26:29 21° S 17:30:58 10° SE daylight
09 Feb - 19:16:56 10° SW 19:18:46 11° SSW 19:20:37 10° S visible
10 Feb - 12:39:53 10° SSE 12:40:48 10° SSE 12:41:43 10° SSE daylight
10 Feb - 14:28:31 10° SW 14:33:14 20° S 14:37:47 10° SE daylight
10 Feb - 16:20:49 10° SW 16:25:44 22° S 16:30:28 10° SE daylight
10 Feb - 18:14:41 10° SW 18:18:05 15° SSW 18:21:27 10° SSE daylight
11 Feb - 13:28:02 10° SSW 13:32:25 18° SSE 13:36:39 10° SE daylight
11 Feb - 15:19:49 10° SW 15:24:57 23° S 15:29:51 10° SE daylight
11 Feb - 17:13:07 10° SW 17:17:23 18° SSW 17:21:32 10° SSE daylight
12 Feb - 12:27:53 10° SSW 12:31:36 15° SSE 12:35:11 10° SE daylight
12 Feb - 14:18:53 10° SW 14:24:07 23° S 14:29:05 10° SE daylight
12 Feb - 16:11:47 10° SW 16:16:37 21° S 16:21:17 10° SE daylight
12 Feb - 18:06:58 10° SW 18:08:55 11° SSW 18:10:50 10° S daylight
13 Feb - 11:28:30 10° S 11:30:45 12° SSE 11:32:58 10° SE daylight
13 Feb - 13:18:06 10° SW 13:23:15 21° S 13:28:11 10° ESE daylight
13 Feb - 15:10:35 10° SW 15:15:50 23° S 15:20:50 10° SE daylight
13 Feb - 17:04:36 10° SW 17:08:13 15° SSW 17:11:45 10° SSE daylight
14 Feb - 12:17:30 10° SSW 12:22:23 19° SSE 12:27:03 10° ESE daylight
14 Feb - 14:09:28 10° SW 14:14:59 25° S 14:20:13 10° SE daylight
14 Feb - 16:02:55 10° WSW 16:07:29 19° SSW 16:11:52 10° SSE daylight
15 Feb - 11:17:14 10° SSW 11:21:30 16° SSE 11:25:37 10° SE daylight
15 Feb - 13:08:28 10° SW 13:14:06 24° S 13:19:26 10° SE daylight
15 Feb - 15:01:29 10° WSW 15:06:41 22° S 15:11:38 10° SE daylight
15 Feb - 16:56:41 10° SW 16:59:00 12° SSW 17:01:16 10° S daylight
16 Feb - 10:17:37 10° S 10:20:36 13° SSE 10:23:33 10° SE daylight
16 Feb - 12:07:37 10° SW 12:13:11 23° S 12:18:29 10° ESE daylight
16 Feb - 14:00:12 10° WSW 14:05:50 25° S 14:11:10 10° SE daylight
16 Feb - 15:54:18 10° SW 15:58:17 16° SSW 16:02:07 10° SSE daylight
